Mount Vernon, IL

10:41 PM CDT on September 26, 2016 (GMT -0500)
Mount Vernon

Weather History for KMVN - March, 2012

Change the Weather History Date:

Saturday, March 31, 2012

  Actual Average Record
Temperature  
Mean Temperature 60 °F -  
Max Temperature 71 °F 59 °F 77 °F (2006)
Min Temperature 48 °F 39 °F 24 °F (2003)
Degree Days  
Heating Degree Days 6    
Growing Degree Days 10 (Base 50)    
Moisture  
Dew Point 51 °F    
Average Humidity 79    
Maximum Humidity 94    
Minimum Humidity 56    
Precipitation  
Precipitation 0.00 in - - ()
Sea Level Pressure  
Sea Level Pressure 29.88 in    
Wind  
Wind Speed 5 mph (NE)    
Max Wind Speed 9 mph    
Max Gust Speed -    
Visibility 6 miles    
Events      
Averages and records for this station are not official NWS values.
T = Trace of Precipitation, MM = Missing Value Source: NWS Daily Summary

Daily Weather History Graph

Daily Weather History Graph

Search for Another Location

Airport or City:

Trip Planner

Search our weather history database for the weather conditions in past years. The results will help you decide how hot, cold, wet, or windy it might be!

Date:

Astronomy

Mar. 31, 2012 Rise Set
Actual Time 6:41 AM CDT 7:18 PM CDT
Civil Twilight 6:14 AM CDT 7:44 PM CDT
Nautical Twilight 5:43 AM CDT 8:16 PM CDT
Astronomical Twilight 5:11 AM CDT 8:48 PM CDT
Moon 12:51 PM CDT (3/31) 2:32 AM CDT (3/31)
Length of Visible Light 13h 30m
Length of Day
12h 37m
First Quarter, 59% of the Moon is Illuminated
Mar 31
First Quarter
Apr 6
Full
Apr 13
Last Quarter
Apr 21
New
Apr 29
First Quarter

Hourly Weather History & Observations

Time (CDT) Temp. Dew Point Humidity Pressure Visibility Wind Dir Wind Speed Gust Speed Precip Events Conditions
12:35 AM 59.0 °F 57.2 °F 94% 29.82 in 8.0 mi North 4.6 mph - N/A   Clear
12:55 AM 57.2 °F 55.4 °F 94% 29.83 in 10.0 mi NNE 4.6 mph - N/A   Clear
1:15 AM 57.2 °F 55.4 °F 94% 29.83 in 10.0 mi NNE 5.8 mph - N/A   Scattered Clouds
1:35 AM 57.2 °F 55.4 °F 94% 29.84 in 10.0 mi NNE 5.8 mph - N/A   Partly Cloudy
1:55 AM 57.2 °F 53.6 °F 88% 29.85 in 10.0 mi NNE 6.9 mph - N/A   Clear
2:15 AM 57.2 °F 53.6 °F 88% 29.85 in 10.0 mi NNE 6.9 mph - N/A   Clear
2:55 AM 55.4 °F 51.8 °F 88% 29.85 in 10.0 mi NNE 4.6 mph - N/A   Mostly Cloudy
3:15 AM 55.4 °F 51.8 °F 88% 29.85 in 7.0 mi North 4.6 mph - N/A   Partly Cloudy
3:35 AM 55.4 °F 51.8 °F 88% 29.86 in 6.0 mi NNE 6.9 mph - N/A   Scattered Clouds
3:55 AM 53.6 °F 50.0 °F 88% 29.86 in 5.0 mi NNE 6.9 mph - N/A   Partly Cloudy
4:15 AM 53.6 °F 50.0 °F 88% 29.87 in 4.0 mi North 9.2 mph - N/A   Clear
4:35 AM 53.6 °F 48.2 °F 82% 29.87 in 3.0 mi NNE 6.9 mph - N/A   Clear
4:55 AM 51.8 °F 48.2 °F 88% 29.87 in 3.0 mi NNE 5.8 mph - N/A   Clear
5:15 AM 51.8 °F 46.4 °F 82% 29.88 in 3.0 mi North 5.8 mph - N/A   Clear
5:35 AM 50.0 °F 46.4 °F 87% 29.89 in 3.0 mi NNE 8.1 mph - N/A   Clear
5:55 AM 50.0 °F 46.4 °F 87% 29.89 in 3.0 mi NE 4.6 mph - N/A   Clear
6:15 AM 48.2 °F 44.6 °F 87% 29.88 in 3.0 mi NE 8.1 mph - N/A   Clear
6:35 AM 48.2 °F 44.6 °F 87% 29.88 in 3.0 mi NE 6.9 mph - N/A   Clear
6:55 AM 48.2 °F 44.6 °F 87% 29.88 in 2.0 mi NE 6.9 mph - N/A   Clear
7:15 AM 48.2 °F 44.6 °F 87% 29.90 in 2.0 mi Calm Calm - N/A   Clear
7:35 AM 48.2 °F 44.6 °F 87% 29.92 in 2.5 mi North 3.5 mph - N/A   Partly Cloudy
7:55 AM 48.2 °F 46.4 °F 93% 29.91 in 2.5 mi NNE 4.6 mph - N/A   Clear
8:15 AM 50.0 °F 44.6 °F 82% 29.93 in 2.5 mi NNE 4.6 mph - N/A   Partly Cloudy
8:35 AM 50.0 °F 46.4 °F 87% 29.92 in 2.5 mi NNE 6.9 mph - N/A   Clear
8:55 AM 51.8 °F 46.4 °F 82% 29.92 in 2.5 mi NE 9.2 mph - N/A   Scattered Clouds
9:15 AM 50.0 °F 46.4 °F 87% 29.93 in 2.0 mi NE 6.9 mph - N/A   Overcast
9:35 AM 50.0 °F 46.4 °F 87% 29.93 in 2.0 mi North 4.6 mph - N/A   Overcast
9:55 AM 51.8 °F 46.4 °F 82% 29.93 in 2.5 mi NE 5.8 mph - N/A   Overcast
10:15 AM 53.6 °F 48.2 °F 82% 29.93 in 2.5 mi ENE 5.8 mph - N/A   Overcast
10:35 AM 53.6 °F 48.2 °F 82% 29.93 in 3.0 mi ENE 3.5 mph - N/A   Mostly Cloudy
10:55 AM 53.6 °F 48.2 °F 82% 29.93 in 3.0 mi East 3.5 mph - N/A   Overcast
11:15 AM 55.4 °F 50.0 °F 82% 29.94 in 3.0 mi ENE 6.9 mph - N/A   Mostly Cloudy
11:35 AM 57.2 °F 51.8 °F 82% 29.94 in 4.0 mi ENE 5.8 mph - N/A   Partly Cloudy
11:55 AM 59.0 °F 51.8 °F 77% 29.93 in 4.0 mi ENE 5.8 mph - N/A   Clear
12:15 PM 60.8 °F 51.8 °F 72% 29.92 in 5.0 mi Calm Calm - N/A   Clear
12:35 PM 60.8 °F 51.8 °F 72% 29.92 in 5.0 mi Calm Calm - N/A   Clear
12:55 PM 64.4 °F 53.6 °F 68% 29.91 in 7.0 mi NE 6.9 mph - N/A   Clear
1:15 PM 64.4 °F 53.6 °F 68% 29.91 in 7.0 mi Calm Calm - N/A   Clear
1:35 PM 66.2 °F 53.6 °F 64% 29.91 in 5.0 mi East 3.5 mph - N/A   Clear
1:55 PM 66.2 °F 55.4 °F 68% 29.89 in 7.0 mi East 6.9 mph - N/A   Clear
2:15 PM 66.2 °F 55.4 °F 68% 29.89 in 7.0 mi ENE 3.5 mph - N/A   Clear
2:55 PM 68.0 °F 55.4 °F 64% 29.88 in 7.0 mi Calm Calm - N/A   Clear
3:15 PM 69.8 °F 55.4 °F 60% 29.87 in 8.0 mi NE 4.6 mph - N/A   Clear
3:35 PM 69.8 °F 55.4 °F 60% 29.87 in 10.0 mi ENE 3.5 mph - N/A   Clear
3:55 PM 69.8 °F 55.4 °F 60% 29.87 in 10.0 mi Calm Calm - N/A   Clear
4:35 PM 71.6 °F 55.4 °F 57% 29.85 in 10.0 mi ENE 6.9 mph - N/A   Clear
4:55 PM 69.8 °F 55.4 °F 60% 29.85 in 10.0 mi East 6.9 mph - N/A   Clear
5:15 PM 69.8 °F 55.4 °F 60% 29.85 in 10.0 mi East 6.9 mph - N/A   Clear
5:55 PM 69.8 °F 55.4 °F 60% 29.85 in 10.0 mi East 5.8 mph - N/A   Clear
6:15 PM 69.8 °F 53.6 °F 56% 29.85 in 10.0 mi East 5.8 mph - N/A   Clear
6:35 PM 68.0 °F 53.6 °F 60% 29.85 in 10.0 mi East 5.8 mph - N/A   Clear
6:55 PM 64.4 °F 53.6 °F 68% 29.85 in 10.0 mi Calm Calm - N/A   Clear
7:15 PM 64.4 °F 53.6 °F 68% 29.85 in 10.0 mi Calm Calm - N/A   Clear
7:35 PM 60.8 °F 53.6 °F 77% 29.85 in 10.0 mi Calm Calm - N/A   Clear
7:55 PM 57.2 °F 53.6 °F 88% 29.85 in 10.0 mi Calm Calm - N/A   Clear
8:15 PM 57.2 °F 53.6 °F 88% 29.85 in 10.0 mi Calm Calm - N/A   Partly Cloudy
8:35 PM 60.8 °F 53.6 °F 77% 29.85 in 10.0 mi NE 3.5 mph - N/A   Clear
8:55 PM 55.4 °F 53.6 °F 94% 29.86 in 8.0 mi Calm Calm - N/A   Clear
9:15 PM 55.4 °F 53.6 °F 94% 29.86 in 10.0 mi Calm Calm - N/A   Clear
9:55 PM 60.8 °F 53.6 °F 77% 29.86 in 10.0 mi Calm Calm - N/A   Clear
10:15 PM 60.8 °F 53.6 °F 77% 29.86 in 9.0 mi Calm Calm - N/A   Scattered Clouds
10:35 PM 60.8 °F 53.6 °F 77% 29.85 in 8.0 mi ESE 3.5 mph - N/A   Scattered Clouds
10:55 PM 60.8 °F 53.6 °F 77% 29.85 in 9.0 mi ESE 4.6 mph - N/A   Clear
11:15 PM 60.8 °F 53.6 °F 77% 29.84 in 8.0 mi Calm Calm - N/A   Clear
11:55 PM 60.8 °F 53.6 °F 77% 29.83 in 8.0 mi Calm Calm - N/A   Clear